Location: Dodgeville
(42.9600°N, 90.1300°W)
Time: 19:23:29
(UTC-05:00)

Uosat F - Visible Passes

Search period start: 01 August 2014 00:00
Search period end: 11 August 2014 00:00
Orbit: 752 x 762 km, 98.7° (Epoch: 31 July)

Date Brightness Start Highest point End Pass type
(mag) Time Alt. Az. Time Alt. Az. Time Alt. Az.
02 Aug 12.6 04:45:50 10° NNE 04:50:25 34° E 04:54:56 10° SSE visible
03 Aug 13.7 04:08:08 10° NE 04:10:57 15° E 04:13:46 10° SE visible
04 Aug 11.9 05:06:11 10° NNE 05:11:06 54° E 05:15:59 10° S visible
05 Aug 13.3 04:27:48 10° NE 04:31:46 23° E 04:35:42 10° SSE visible
06 Aug 11.2 05:26:41 10° NNE 05:31:44 84° ESE 05:36:44 10° SSW visible
07 Aug 12.6 04:47:55 10° NNE 04:52:31 35° E 04:57:05 10° SSE visible
08 Aug 13.7 04:10:09 10° NE 04:13:04 15° E 04:15:59 10° SE visible
09 Aug 11.8 05:08:16 10° NNE 05:13:12 55° E 05:18:05 10° S visible
10 Aug 13.2 04:29:51 10° NE 04:33:52 24° E 04:37:52 10° SSE visible
